Date,TemperatureHighF,TemperatureAvgF,TemperatureLowF,DewpointHighF,DewpointAvgF,DewpointLowF,HumidityHigh,HumidityAvg,HumidityLow,PressureMaxIn,PressureMinIn,WindSpeedMaxMPH,WindSpeedAvgMPH,GustSpeedMaxMPH,PrecipitationSumIn
2013-4-1,61,49,42,47,42,32,98,77,48,29.94,29.81,0,0,0,0.03
2013-4-2,52,42,33,32,24,16,78,52,26,30.13,29.93,0,0,0,0.00
2013-4-3,56,44,32,25,20,14,57,40,22,30.22,30.12,0,0,0,0.00
2013-4-4,45,36,32,35,28,14,99,76,34,30.20,29.96,0,0,0,0.32
2013-4-5,54,41,35,44,37,34,100,86,56,30.09,29.94,0,0,0,0.00
2013-4-6,63,52,41,38,34,30,79,53,30,30.20,30.08,0,0,0,0.00
2013-4-7,66,56,45,45,39,32,67,55,41,30.14,30.02,0,0,0,0.00
2013-4-8,70,61,54,52,48,44,73,62,49,30.07,29.97,0,0,0,0.00
2013-4-9,78,66,56,56,53,48,80,63,43,30.12,30.00,0,0,0,0.00
2013-4-10,81,69,59,56,53,48,78,60,32,30.02,29.84,0,0,0,0.00
2013-4-11,73,65,58,61,55,52,99,72,49,29.86,29.57,0,0,0,0.43
2013-4-12,63,57,48,59,50,38,100,81,51,29.81,29.53,0,0,0,1.12
2013-4-13,48,48,47,38,37,37,68,67,66,29.83,29.81,0,0,0,0.00
2013-4-14,61,56,52,48,44,39,87,65,44,29.98,29.88,0,0,0,0.00
2013-4-15,67,55,48,57,52,47,100,89,63,30.14,29.88,0,0,0,0.03
2013-4-16,76,63,55,59,56,52,97,78,48,30.22,30.10,0,0,0,0.00
2013-4-17,73,62,58,63,58,55,98,86,69,30.16,30.04,0,0,0,0.19
2013-4-18,69,63,58,60,57,54,95,80,59,30.04,29.84,0,0,0,0.01
2013-4-19,63,56,39,61,54,36,99,95,87,29.86,29.63,0,0,0,0.06
2013-4-20,55,43,32,36,31,28,90,65,42,30.28,29.86,0,0,0,0.02
2013-4-21,58,48,40,37,31,26,69,53,34,30.39,30.26,0,0,0,0.01
2013-4-22,60,49,39,41,37,30,88,64,43,30.34,30.15,0,0,0,0.01
2013-4-23,70,55,42,45,37,27,71,52,25,30.21,30.03,0,0,0,0.00
2013-4-24,59,54,46,57,50,45,96,86,71,30.06,29.94,0,0,0,0.04
2013-4-25,63,50,38,45,33,11,96,62,15,30.29,30.03,0,0,0,0.01
2013-4-26,65,54,42,43,33,27,68,46,31,30.37,30.23,0,0,0,0.01
2013-4-27,54,50,47,50,46,38,99,87,57,30.32,30.17,0,0,0,0.00
2013-4-28,50,48,44,50,47,42,100,97,87,30.20,29.94,0,0,0,0.00
2013-4-29,70,57,48,58,52,47,100,85,45,30.03,29.88,0,0,0,0.01
2013-4-30,71,60,53,58,54,52,99,82,54,30.07,29.91,0,0,0,0.01